STARLINK-36091, 66848

Orbit data source: Space-Track

STARLINK-36091, 66848 is a payload satellite owned by SpaceX/Seattle (US) in LEO that was launched on Tue, 02 Dec 2025 UTC via an FALCON 9 launch vehicle from the Air Force Eastern Test Range (AFETR). Payload-class satellites include a variety of spacecraft equipped with specific instruments for various scientific and technological missions. These include communications satellites like Starlink; space stations such as the ISS; scientific satellites like the Hubble; Earth observation satellites from companies like Planet Labs, Umbra, and HawkEye 360; GPS; miniature CubeSats for education and research; and military/defense satellites.

Loading next visibility...
Identifier
66848, 2025-281A
Orbit
LEO
Country
Flag of USUS
Related business
Manufacturer
SpaceX/Seattle
Mission
Operational Commercial Communications
Bus & Motor
STARLINK V2MO, Unknown motor
Mass
575 kg wet, ~530 kg dry
Launch date (UTC)
2025-12-02 (7 months ago)
Launch vehicle
FALCON 9
Launch site
Air Force Eastern Test Range (AFETR)
Object type
Payload
Rocket body
Debris
Shape & HBR
Box + 2 Pan, 17.7 m
Radar Cross Section
36.964 m², Large (>1 m²)

Expand to show TLE details & history
Last TLE update: 13 hours ago

TLE from 13 hours ago
0 STARLINK-36091
1 66848U 25281A   26171.29407360  .00011433  00000-0  42422-3 0  9997
2 66848  42.9965 124.3612 0000567 294.3900  65.6893 15.27589352 30550
Epoch: 2026-06-20T07:03Z
TLE epoch observation values (Epoch: 2026-06-20T07:03:27.959Z)
Latitude
0.00004°
Longitude
109.98399°
Altitude
482.636 km
Speed
7.626 km/s
True Right ascension
08h 17m 26s
True Declination
0° 00' 00"
Sunlit
Object was in daylight at epoch
Visualization orbit readout
Latitude
Unknown
Longitude
Unknown
Altitude
Unknown
Speed
Unknown
Apparent Right ascension
Unknown
Apparent Declination
Unknown
Sunlit
N/A
Visualization observer readout
Local Sidereal Time
07:13:02
Azimuth
Unknown
Elevation
Unknown
Doppler factor
Unknown
Orbital elements
Apogee altitude
485.356 km
Perigee altitude
484.578 km
Semi-major axis
6,863.104 km
Eccentricity
0.00006
Inclination
42.9965°
RAAN
124.3612°
Arg. of periapsis
294.39°
True anomaly
65.69522°
Mean anomaly
65.6893°
Eccentric anomaly
65.69226°
Mean motion
3.81735 °/min
Orbital period
94.31 mins
BSTAR
0.00042422
Loading maneuver chart data...
Computing Atmospheric mass density...
Loading historical data...
Loading historical data...
Loading historical data...
Loading historical data...
Loading historical data...
Loading historical data...
Loading historical data...

Documentation

Showing up to 5 results
|